Weather History for Bethel, AK

Change the Weather History Date:

Tuesday, October 16, 2012

  Actual Average Record
Temperature  
Mean Temperature 27 °F 30 °F  
Max Temperature 32 °F 36 °F 56 °F (1969)
Min Temperature 22 °F 25 °F 7 °F (2008)
Degree Days  
Heating Degree Days 38 35  
Month to date heating degree days 436 493  
Since 1 July heating degree days 1873 1719  
Cooling Degree Days 0    
Month to date cooling degree days 0  
Year to date cooling degree days 0  
Moisture  
Dew Point 18 °F    
Average Humidity 0    
Maximum Humidity 0    
Minimum Humidity 0    
Precipitation  
Precipitation 0.00 in 0.05 in 0.80 in (1973)
Month to date precipitation 2.07 0.97  
Year to date precipitation 18.92 15.14  
Snow  
Snow 0.00 in 0.10 in 4.20 in (1961)
Month to date snowfall 0.0 1.4  
Since 1 July snowfall 0.1 2.0  
Since 1 September snowfall 0.1 2.0  
Snow Depth 0.00 in    
Sea Level Pressure  
Sea Level Pressure 29.83 in    
Wind  
Wind Speed 20 mph (NW)    
Max Wind Speed 38 mph    
Max Gust Speed 45 mph    
Visibility 9 miles    
Events Snow    
T = Trace of Precipitation, MM = Missing Value Source: NWS Daily Summary

Daily Weather History Graph

Daily Weather History Graph

Search for Another Location

Airport:

Trip Planner

Search our weather history database for the weather conditions in past years. The results will help you decide how hot, cold, wet, or windy it might be!

Date:

Astronomy

Oct. 16, 2012 Rise Set
Actual Time 9:33 AM AKDT 7:31 PM AKDT
Civil Twilight 8:49 AM AKDT 8:14 PM AKDT
Nautical Twilight 8:00 AM AKDT 9:03 PM AKDT
Astronomical Twilight 7:10 AM AKDT 9:53 PM AKDT
Moon 11:52 AM AKDT (10/16) 7:39 PM AKDT (10/16)
Length of Visible Light 11h 25m
Length of Day
9h 58m
Waxing Crescent, 3% of the Moon is Illuminated
Oct 16
Waxing Crescent
Oct 21
First Quarter
Oct 29
Full
Nov 6
Last Quarter
Nov 13
New

Hourly Weather History & Observations

Time (AKDT) Temp. Windchill Dew Point Humidity Pressure Visibility Wind Dir Wind Speed Gust Speed Precip Events Conditions
12:53 AM 21.9 °F 8.7 °F 19.0 °F 89% 29.70 in 10.0 mi NW 15.0 mph - N/A   Clear
1:53 AM 21.9 °F 9.2 °F 19.0 °F 89% 29.71 in 10.0 mi NW 13.8 mph - N/A   Clear
2:53 AM 21.9 °F 8.2 °F 19.0 °F 89% 29.72 in 10.0 mi NW 16.1 mph 24.2 mph N/A   Clear
3:53 AM 21.9 °F 8.7 °F 18.0 °F 85% 29.73 in 10.0 mi NW 15.0 mph - N/A   Clear
4:53 AM 21.9 °F 8.2 °F 18.0 °F 85% 29.74 in 10.0 mi NW 16.1 mph - N/A   Clear
5:53 AM 21.9 °F 8.2 °F 18.0 °F 85% 29.75 in 10.0 mi NW 16.1 mph 23.0 mph N/A   Clear
6:53 AM 21.9 °F 7.3 °F 18.0 °F 85% 29.76 in 10.0 mi NW 18.4 mph - N/A   Clear
7:53 AM 21.9 °F 8.7 °F 18.0 °F 85% 29.77 in 10.0 mi NW 15.0 mph - N/A   Clear
8:53 AM 21.9 °F 8.2 °F 18.0 °F 85% 29.78 in 10.0 mi WNW 16.1 mph - N/A   Scattered Clouds
9:53 AM 21.9 °F 8.2 °F 17.1 °F 82% 29.80 in 10.0 mi NW 16.1 mph - N/A   Scattered Clouds
10:53 AM 24.1 °F 10.1 °F 18.0 °F 77% 29.81 in 10.0 mi NW 18.4 mph - N/A   Scattered Clouds
11:53 AM 26.1 °F 10.7 °F 19.0 °F 75% 29.82 in 10.0 mi NW 25.3 mph 29.9 mph N/A   Scattered Clouds
12:53 PM 28.9 °F 15.1 °F 19.9 °F 69% 29.83 in 10.0 mi NNW 23.0 mph 32.2 mph N/A   Scattered Clouds
1:53 PM 30.0 °F 14.5 °F 19.9 °F 66% 29.84 in 10.0 mi NNW 32.2 mph 36.8 mph N/A   Scattered Clouds
2:53 PM 30.9 °F 16.4 °F 17.1 °F 57% 29.85 in 10.0 mi NNW 28.8 mph 40.3 mph N/A   Scattered Clouds
3:19 PM 30.2 °F 14.5 °F 19.4 °F 64% 29.85 in 1.5 mi NNW 33.4 mph 44.9 mph 0.00 in Snow Light Snow
3:29 PM 30.2 °F 16.5 °F 19.4 °F 64% 29.85 in 6.0 mi NNW 24.2 mph 36.8 mph 0.00 in   Haze
3:53 PM 32.0 °F 17.6 °F 16.0 °F 52% 29.86 in 8.0 mi NNW 29.9 mph 40.3 mph N/A   Scattered Clouds
4:53 PM 30.9 °F 17.2 °F 16.0 °F 54% 29.86 in 9.0 mi NNW 25.3 mph 36.8 mph N/A   Scattered Clouds
5:53 PM 30.9 °F 16.7 °F 15.1 °F 52% 29.88 in 10.0 mi NNW 27.6 mph 38.0 mph N/A   Partly Cloudy
6:53 PM 28.9 °F 15.4 °F 18.0 °F 64% 29.90 in 10.0 mi NNW 21.9 mph 33.4 mph N/A   Scattered Clouds
7:53 PM 27.0 °F 12.2 °F 17.1 °F 66% 29.92 in 10.0 mi NNW 24.2 mph 29.9 mph N/A   Clear
8:53 PM 25.0 °F 12.6 °F 18.0 °F 75% 29.94 in 10.0 mi NW 15.0 mph 23.0 mph N/A   Clear
9:53 PM 24.1 °F 11.0 °F 18.0 °F 77% 29.96 in 10.0 mi NW 16.1 mph - N/A   Clear
10:53 PM 24.1 °F 11.0 °F 18.0 °F 77% 29.97 in 10.0 mi NW 16.1 mph - N/A   Clear